Location: ?????????
(54.7630°N, 39.4991°E)
Time: 07:40:39
(UTC+00:00)

Cosmos 1371 Rocket - Pass Details

Date: 14 April 2026
Orbit: 749 x 786 km, 74.0° (Epoch: 10 May)

Event Time Altitude Azimuth Distance (km) Brightness Sun altitude
Exits shadow 22:18:26 71° 190° (S) 814 3.8 -24.5°
Maximum altitude 22:19:00 85° 116° (ESE) 780 3.9 -24.5°
Drops below altitude 10° 22:24:19 10° 28° (NNE) 2,335 7.5 -24.3°
Sets 22:26:44 0° 28° (NNE) 3,272 8.6 -24.1°
